San Francisco Weather Center

Moon Phase Calendar



Online Cameras

 


      

Current Conditions in San Francisco
9/19/2021 10:22:19 AM

66°F
Feels Like 66
Clouds
Humidity
86%
Pressure
30.12"
Wind
8 mph (WNW)
Dew Point
61°F
UV Index
2/10 (Low)
Visibility
6 mi

Hourly Forecast

Date & Time Sun, Sep 19
10:00 AM
Sun, Sep 19
11:00 AM
Sun, Sep 19
12:00 PM
Sun, Sep 19
1:00 PM
Sun, Sep 19
2:00 PM
Sun, Sep 19
3:00 PM
Sun, Sep 19
4:00 PM
Sun, Sep 19
5:00 PM
Sun, Sep 19
6:00 PM
Sun, Sep 19
7:00 PM
Sun, Sep 19
8:00 PM
Sun, Sep 19
9:00 PM
Sun, Sep 19
10:00 PM
Sun, Sep 19
11:00 PM
Mon, Sep 20
12:00 AM
Mon, Sep 20
1:00 AM
Mon, Sep 20
2:00 AM
Mon, Sep 20
3:00 AM
Mon, Sep 20
4:00 AM
Mon, Sep 20
5:00 AM
Mon, Sep 20
6:00 AM
Mon, Sep 20
7:00 AM
Mon, Sep 20
8:00 AM
Mon, Sep 20
9:00 AM
Mon, Sep 20
10:00 AM
Mon, Sep 20
11:00 AM
Mon, Sep 20
12:00 PM
Mon, Sep 20
1:00 PM
Mon, Sep 20
2:00 PM
Mon, Sep 20
3:00 PM
Mon, Sep 20
4:00 PM
Mon, Sep 20
5:00 PM
Mon, Sep 20
6:00 PM
Mon, Sep 20
7:00 PM
Mon, Sep 20
8:00 PM
Mon, Sep 20
9:00 PM
Mon, Sep 20
10:00 PM
Mon, Sep 20
11:00 PM
Tue, Sep 21
12:00 AM
Tue, Sep 21
1:00 AM
Tue, Sep 21
2:00 AM
Tue, Sep 21
3:00 AM
Tue, Sep 21
4:00 AM
Tue, Sep 21
5:00 AM
Tue, Sep 21
6:00 AM
Tue, Sep 21
7:00 AM
Tue, Sep 21
8:00 AM
Tue, Sep 21
9:00 AM
Condition
Clouds

Clouds

Clouds

Clouds

Clouds

Clouds

Clouds

Clouds

Clear

Clear

Clear

Clear

Clear

Clear

Clear

Clear

Clear

Clear

Clear

Clear

Clear

Clear

Clear

Clear

Clear

Clear

Clear

Clear

Clear

Clear

Clear

Clear

Clear

Clear

Clear

Clear

Clear

Clear

Clear

Clear

Clear

Clear

Clear

Clear

Clear

Clear

Clear

Clear
Temperature 66°F65°F64°F64°F65°F65°F63°F62°F60°F58°F57°F56°F56°F56°F56°F56°F56°F56°F56°F56°F56°F56°F58°F61°F65°F68°F71°F73°F74°F73°F71°F69°F66°F63°F62°F62°F62°F62°F62°F61°F61°F62°F62°F63°F62°F62°F64°F67°F
Feels Like 66°F65°F64°F64°F64°F64°F63°F61°F60°F58°F56°F56°F55°F55°F55°F55°F55°F55°F55°F55°F55°F55°F57°F60°F64°F67°F69°F72°F73°F72°F70°F68°F64°F62°F61°F61°F61°F60°F60°F60°F60°F60°F61°F61°F60°F60°F62°F66°F
Cloudiness 40%41%30%27%19%22%20%18%10%7%6%5%4%3%0%0%0%0%0%0%0%0%0%0%0%0%0%0%0%0%0%0%0%0%0%0%0%0%0%0%0%0%0%0%0%0%0%0%
Visibility 6 mi6 mi6 mi6 mi6 mi6 mi6 mi6 mi6 mi6 mi6 mi6 mi6 mi6 mi6 mi6 mi6 mi6 mi6 mi6 mi6 mi6 mi6 mi6 mi6 mi6 mi6 mi6 mi6 mi6 mi6 mi6 mi6 mi6 mi6 mi6 mi6 mi6 mi6 mi6 mi6 mi6 mi6 mi6 mi6 mi6 mi6 mi6 mi
Precipitation 0%0%0%0%0%0%0%0%0%0%0%0%0%0%0%0%0%0%0%0%0%0%0%0%0%0%0%0%0%0%0%0%0%0%0%0%0%0%0%0%0%0%0%0%0%0%0%0%
Humidity 86%83%79%74%68%64%68%74%76%80%84%86%86%86%85%85%84%84%84%83%82%81%75%66%55%48%42%39%38%41%45%48%54%59%59%58%58%58%58%58%56%54%51%49%48%47%45%39%
Dew Point 61°F59°F58°F56°F54°F51°F51°F52°F52°F52°F52°F52°F51°F51°F51°F51°F51°F51°F50°F50°F50°F50°F49°F48°F45°F43°F42°F41°F41°F42°F43°F44°F46°F47°F47°F47°F46°F46°F46°F46°F45°F44°F43°F42°F42°F41°F41°F40°F
Pressure 30.12"30.12"30.12"30.09"30.06"30.03"30.03"30.03"30.03"30.03"30.03"30.03"30.03"30"30"29.97"29.97"29.97"29.94"29.94"29.94"29.97"29.97"29.97"29.97"29.97"29.94"29.91"29.91"29.88"29.88"29.88"29.88"29.91"29.91"29.94"29.94"29.94"29.94"29.94"29.94"29.94"29.94"29.97"29.97"30"30"30.03"
Wind Speed 6.1 mph7 mph7.8 mph9.4 mph10.7 mph12.4 mph13.4 mph13.1 mph10.5 mph8.6 mph7 mph4.6 mph1.8 mph2 mph2.1 mph1.8 mph2 mph1.4 mph1.4 mph0.8 mph0.2 mph0.4 mph1.4 mph1.9 mph2.7 mph3.9 mph3.6 mph4.3 mph5.1 mph7.9 mph9.5 mph9.1 mph8.3 mph6.5 mph5.1 mph3.1 mph1.5 mph2.1 mph2.6 mph2 mph2.1 mph2.3 mph3.1 mph3.8 mph4.4 mph4.3 mph4.4 mph4.2 mph
Wind
Direction
276°
W
276°
W
270°
W
272°
W
272°
W
271°
W
275°
W
278°
W
282°
WNW
281°
W
275°
W
273°
W
258°
WSW
158°
SSE
162°
SSE
164°
SSE
170°
S
256°
WSW
257°
WSW
274°
W
298°
WNW
172°
S
146°
SE
94°
E
71°
ENE
33°
NNE

N
334°
NNW
305°
NW
286°
WNW
277°
W
276°
W
274°
W
280°
W
290°
WNW
289°
WNW
248°
WSW
177°
S
156°
SSE
152°
SSE
125°
SE
78°
ENE
66°
ENE
62°
ENE
56°
NE
56°
NE
53°
NE
47°
NE

Daily Forecast

Date High Low Precip. Humidity
Today
Sep 19

Rain
66 °F
56 °F
38%
74%
Monday
Sep 20

Clear
74 °F
56 °F
0%
39%
Tuesday
Sep 21

Clear
77 °F
61 °F
0%
30%
Wednesday
Sep 22

Clear
68 °F
56 °F
0%
55%
Thursday
Sep 23

Clouds
70 °F
54 °F
0%
51%
Friday
Sep 24

Clear
65 °F
55 °F
0%
67%
Saturday
Sep 25

Clear
65 °F
56 °F
0%
67%
Sunday
Sep 26

Clouds
63 °F
54 °F
0%
65%
Monday
Sep 27

Clouds
63 °F
53 °F
0%
65%
Tuesday
Sep 28

Clouds
61 °F
55 °F
0%
83%
Wednesday
Sep 29

Clear
63 °F
54 °F
0%
70%
Thursday
Sep 30

Clouds
63 °F
54 °F
0%
66%
Friday
Oct 1

Clouds
65 °F
56 °F
0%
71%
Saturday
Oct 2

Clouds
64 °F
55 °F
0%
79%
Sunday
Oct 3

Clouds
64 °F
53 °F
0%
70%
Monday
Oct 4

Clear
69 °F
55 °F
0%
64%

Temperature 8-14 Day Outlook



Precipitation 8-14 Day Outlook




Quick Links
San Francisco News
San Francisco Photos
San Francisco Videos




About Us
Contact Us
Site Map
Search Site
Advertise With Us
   
SanFrancisco.USCoast.info
THE SAN FRANCISCO WEBSITE

Copyright 2021, Coastal Town
Privacy    |    Legal